Year,Month,Day,Hour,Minute,Value (Times are PST for temperature in C)
2015,03,28,00,00,10.80
2015,03,28,00,01,10.80
2015,03,28,00,02,10.80
2015,03,28,00,03,10.80
2015,03,28,00,04,10.80
2015,03,28,00,05,10.80
2015,03,28,00,06,10.80
2015,03,28,00,07,10.80
2015,03,28,00,08,10.80
2015,03,28,00,09,10.80
2015,03,28,00,10,10.70
2015,03,28,00,11,10.70
2015,03,28,00,12,10.70
2015,03,28,00,13,10.70
2015,03,28,00,14,10.70
2015,03,28,00,15,10.70
2015,03,28,00,16,10.70
2015,03,28,00,17,10.70
2015,03,28,00,18,10.60
2015,03,28,00,19,10.60
2015,03,28,00,20,10.60
2015,03,28,00,21,10.60
2015,03,28,00,22,10.60
2015,03,28,00,23,10.60
2015,03,28,00,24,10.60
2015,03,28,00,25,10.60
2015,03,28,00,26,10.60
2015,03,28,00,27,10.60
2015,03,28,00,28,10.60
2015,03,28,00,29,10.60
2015,03,28,00,30,10.60
2015,03,28,00,31,10.60
2015,03,28,00,32,10.50
2015,03,28,00,33,10.50
2015,03,28,00,34,10.50
2015,03,28,00,35,10.50
2015,03,28,00,36,10.50
2015,03,28,00,37,10.60
2015,03,28,00,38,10.60
2015,03,28,00,39,10.60
2015,03,28,00,40,10.50
2015,03,28,00,41,10.50
2015,03,28,00,42,10.50
2015,03,28,00,43,10.50
2015,03,28,00,44,10.50
2015,03,28,00,45,10.50
2015,03,28,00,46,10.50
2015,03,28,00,47,10.50
2015,03,28,00,48,10.50
2015,03,28,00,49,10.50
2015,03,28,00,50,10.40
2015,03,28,00,51,10.40
2015,03,28,00,52,10.40
2015,03,28,00,53,10.40
2015,03,28,00,54,10.40
2015,03,28,00,55,10.40
2015,03,28,00,56,10.40
2015,03,28,00,57,10.40
2015,03,28,00,58,10.30
2015,03,28,00,59,10.30
2015,03,28,01,00,10.30
2015,03,28,01,01,10.30
2015,03,28,01,02,10.30
2015,03,28,01,03,10.30
2015,03,28,01,04,10.30
2015,03,28,01,05,10.20
2015,03,28,01,06,10.20
2015,03,28,01,07,10.20
2015,03,28,01,08,10.20
2015,03,28,01,09,10.20
2015,03,28,01,10,10.20
2015,03,28,01,11,10.20
2015,03,28,01,12,10.10
2015,03,28,01,13,10.10
2015,03,28,01,14,10.10
2015,03,28,01,15,10.10
2015,03,28,01,16,10.10
2015,03,28,01,17,10.10
2015,03,28,01,18,10.10
2015,03,28,01,19,10.10
2015,03,28,01,20,10.10
2015,03,28,01,21,10.10
2015,03,28,01,22,10.10
2015,03,28,01,23,10.10
2015,03,28,01,24,10.00
2015,03,28,01,25,10.00
2015,03,28,01,26,10.00
2015,03,28,01,27,10.00
2015,03,28,01,28,10.00
2015,03,28,01,29,10.00
2015,03,28,01,30,10.00
2015,03,28,01,31,10.00
2015,03,28,01,32,9.90
2015,03,28,01,33,9.90
2015,03,28,01,34,9.90
2015,03,28,01,35,9.90
2015,03,28,01,36,9.90
2015,03,28,01,37,10.00
2015,03,28,01,38,10.00
2015,03,28,01,39,10.00
2015,03,28,01,40,10.00
2015,03,28,01,41,9.90
2015,03,28,01,42,9.90
2015,03,28,01,43,9.90
2015,03,28,01,44,9.90
2015,03,28,01,45,9.90
2015,03,28,01,46,9.90
2015,03,28,01,47,9.90
2015,03,28,01,48,9.90
2015,03,28,01,49,9.80
2015,03,28,01,50,9.80
2015,03,28,01,51,9.80
2015,03,28,01,52,9.80
2015,03,28,01,53,9.80
2015,03,28,01,54,9.80
2015,03,28,01,55,9.80
2015,03,28,01,56,9.80
2015,03,28,01,57,9.70
2015,03,28,01,58,9.70
2015,03,28,01,59,9.80
2015,03,28,02,00,9.70
2015,03,28,02,01,9.70
2015,03,28,02,02,9.70
2015,03,28,02,03,9.70
2015,03,28,02,04,9.70
2015,03,28,02,05,9.70
2015,03,28,02,06,9.70
2015,03,28,02,07,9.70
2015,03,28,02,08,9.70
2015,03,28,02,09,9.70
2015,03,28,02,10,9.70
2015,03,28,02,11,9.70
2015,03,28,02,12,9.70
2015,03,28,02,13,9.70
2015,03,28,02,14,9.70
2015,03,28,02,15,9.70
2015,03,28,02,16,9.70
2015,03,28,02,17,9.70
2015,03,28,02,18,9.70
2015,03,28,02,19,9.70
2015,03,28,02,20,9.70
2015,03,28,02,21,9.70
2015,03,28,02,22,9.70
2015,03,28,02,23,9.70
2015,03,28,02,24,9.70
2015,03,28,02,25,9.70
2015,03,28,02,26,9.70
2015,03,28,02,27,9.70
2015,03,28,02,28,9.60
2015,03,28,02,29,9.60
2015,03,28,02,30,9.60
2015,03,28,02,31,9.60
2015,03,28,02,32,9.60
2015,03,28,02,33,9.50
2015,03,28,02,34,9.50
2015,03,28,02,35,9.50
2015,03,28,02,36,9.40
2015,03,28,02,37,9.40
2015,03,28,02,38,9.40
2015,03,28,02,39,9.40
2015,03,28,02,40,9.40
2015,03,28,02,41,9.40
2015,03,28,02,42,9.40
2015,03,28,02,43,9.40
2015,03,28,02,44,9.40
2015,03,28,02,45,9.40
2015,03,28,02,46,9.40
2015,03,28,02,47,9.40
2015,03,28,02,48,9.40
2015,03,28,02,49,9.40
2015,03,28,02,50,9.40
2015,03,28,02,51,9.40
2015,03,28,02,52,9.50
2015,03,28,02,53,9.50
2015,03,28,02,54,9.50
2015,03,28,02,55,9.50
2015,03,28,02,56,9.50
2015,03,28,02,57,9.50
2015,03,28,02,58,9.40
2015,03,28,02,59,9.40
2015,03,28,03,00,9.40
2015,03,28,03,01,9.40
2015,03,28,03,02,9.40
2015,03,28,03,03,9.40
2015,03,28,03,04,9.30
2015,03,28,03,05,9.30
2015,03,28,03,06,9.30
2015,03,28,03,07,9.30
2015,03,28,03,08,9.30
2015,03,28,03,09,9.30
2015,03,28,03,10,9.30
2015,03,28,03,11,9.30
2015,03,28,03,12,9.30
2015,03,28,03,13,9.40
2015,03,28,03,14,9.40
2015,03,28,03,15,9.40
2015,03,28,03,16,9.40
2015,03,28,03,17,9.40
2015,03,28,03,18,9.40
2015,03,28,03,19,9.40
2015,03,28,03,20,9.40
2015,03,28,03,21,9.40
2015,03,28,03,22,9.40
2015,03,28,03,23,9.50
2015,03,28,03,24,9.50
2015,03,28,03,25,9.50
2015,03,28,03,26,9.50
2015,03,28,03,27,9.50
2015,03,28,03,28,9.50
2015,03,28,03,29,9.50
2015,03,28,03,30,9.60
2015,03,28,03,31,9.60
2015,03,28,03,32,9.60
2015,03,28,03,33,9.70
2015,03,28,03,34,9.70
2015,03,28,03,35,9.70
2015,03,28,03,36,9.70
2015,03,28,03,37,9.70
2015,03,28,03,38,9.70
2015,03,28,03,39,9.70
2015,03,28,03,40,9.60
2015,03,28,03,41,9.60
2015,03,28,03,42,9.60
2015,03,28,03,43,9.60
2015,03,28,03,44,9.60
2015,03,28,03,45,9.50
2015,03,28,03,46,9.50
2015,03,28,03,47,9.50
2015,03,28,03,48,9.50
2015,03,28,03,49,9.50
2015,03,28,03,50,9.60
2015,03,28,03,51,9.60
2015,03,28,03,52,9.60
2015,03,28,03,53,9.60
2015,03,28,03,54,9.70
2015,03,28,03,55,9.70
2015,03,28,03,56,9.70
2015,03,28,03,57,9.80
2015,03,28,03,58,9.80
2015,03,28,03,59,9.90
2015,03,28,04,00,9.90
2015,03,28,04,01,9.90
2015,03,28,04,02,10.00
2015,03,28,04,03,10.00
2015,03,28,04,04,10.00
2015,03,28,04,05,10.00
2015,03,28,04,06,10.00
2015,03,28,04,07,10.10
2015,03,28,04,08,10.10
2015,03,28,04,09,10.10
2015,03,28,04,10,10.10
2015,03,28,04,11,10.10
2015,03,28,04,12,10.10
2015,03,28,04,13,10.10
2015,03,28,04,14,10.20
2015,03,28,04,15,10.20
2015,03,28,04,16,10.20
2015,03,28,04,17,10.20
2015,03,28,04,18,10.20
2015,03,28,04,19,10.20
2015,03,28,04,20,10.20
2015,03,28,04,21,10.20
2015,03,28,04,22,10.20
2015,03,28,04,23,10.20
2015,03,28,04,24,10.20
2015,03,28,04,25,10.20
2015,03,28,04,26,10.20
2015,03,28,04,27,10.20
2015,03,28,04,28,10.20
2015,03,28,04,29,10.20
2015,03,28,04,30,10.20
2015,03,28,04,31,10.20
2015,03,28,04,32,10.20
2015,03,28,04,33,10.20
2015,03,28,04,34,10.10
2015,03,28,04,35,10.20
2015,03,28,04,36,10.20
2015,03,28,04,37,10.20
2015,03,28,04,38,10.20
2015,03,28,04,39,10.20
2015,03,28,04,40,10.20
2015,03,28,04,41,10.20
2015,03,28,04,42,10.20
2015,03,28,04,43,10.20
2015,03,28,04,44,10.20
2015,03,28,04,45,10.20
2015,03,28,04,46,10.20
2015,03,28,04,47,10.20
2015,03,28,04,48,10.20
2015,03,28,04,49,10.10
2015,03,28,04,50,10.10
2015,03,28,04,51,10.10
2015,03,28,04,52,10.10
2015,03,28,04,53,10.00
2015,03,28,04,54,10.00
2015,03,28,04,55,10.00
2015,03,28,04,56,10.00
2015,03,28,04,57,10.00
2015,03,28,04,58,10.10
2015,03,28,04,59,10.10
2015,03,28,05,00,10.10
2015,03,28,05,01,10.10
2015,03,28,05,02,10.10
2015,03,28,05,03,10.10
2015,03,28,05,04,10.10
2015,03,28,05,05,10.10
2015,03,28,05,06,10.10
2015,03,28,05,07,10.10
2015,03,28,05,08,10.10
2015,03,28,05,09,10.20
2015,03,28,05,10,10.20
2015,03,28,05,11,10.20
2015,03,28,05,12,10.10
2015,03,28,05,13,10.10
2015,03,28,05,14,10.10
2015,03,28,05,15,10.10
2015,03,28,05,16,10.10
2015,03,28,05,17,10.10
2015,03,28,05,18,10.10
2015,03,28,05,19,10.10
2015,03,28,05,20,10.00
2015,03,28,05,21,10.00
2015,03,28,05,22,10.00
2015,03,28,05,23,10.00
2015,03,28,05,24,10.00
2015,03,28,05,25,10.00
2015,03,28,05,26,10.00
2015,03,28,05,27,9.90
2015,03,28,05,28,9.90
2015,03,28,05,29,9.90
2015,03,28,05,30,9.90
2015,03,28,05,31,9.90
2015,03,28,05,32,9.90
2015,03,28,05,33,9.90
2015,03,28,05,34,9.90
2015,03,28,05,35,9.90
2015,03,28,05,36,9.90
2015,03,28,05,37,9.90
2015,03,28,05,38,9.90
2015,03,28,05,39,9.90
2015,03,28,05,40,9.90
2015,03,28,05,41,9.90
2015,03,28,05,42,9.90
2015,03,28,05,43,9.90
2015,03,28,05,44,9.90
2015,03,28,05,45,9.90
2015,03,28,05,46,9.90
2015,03,28,05,47,9.90
2015,03,28,05,48,9.90
2015,03,28,05,49,9.90
2015,03,28,05,50,9.90
2015,03,28,05,51,9.90
2015,03,28,05,52,9.90
2015,03,28,05,53,9.90
2015,03,28,05,54,9.90
2015,03,28,05,55,9.90
2015,03,28,05,56,9.90
2015,03,28,05,57,9.90
2015,03,28,05,58,9.90
2015,03,28,05,59,9.90
2015,03,28,06,00,9.90
2015,03,28,06,01,9.90
2015,03,28,06,02,10.00
2015,03,28,06,03,10.00
2015,03,28,06,04,10.00
2015,03,28,06,05,10.00
2015,03,28,06,06,10.00
2015,03,28,06,07,10.00
2015,03,28,06,08,10.10
2015,03,28,06,09,10.10
2015,03,28,06,10,10.10
2015,03,28,06,11,10.10
2015,03,28,06,12,10.10
2015,03,28,06,13,10.20
2015,03,28,06,14,10.20
2015,03,28,06,15,10.20
2015,03,28,06,16,10.30
2015,03,28,06,17,10.30
2015,03,28,06,18,10.30
2015,03,28,06,19,10.30
2015,03,28,06,20,10.30
2015,03,28,06,21,10.30
2015,03,28,06,22,10.40
2015,03,28,06,23,10.40
2015,03,28,06,24,10.40
2015,03,28,06,25,10.30
2015,03,28,06,26,10.30
2015,03,28,06,27,10.30
2015,03,28,06,28,10.30
2015,03,28,06,29,10.30
2015,03,28,06,30,10.30
2015,03,28,06,31,10.30
2015,03,28,06,32,10.30
2015,03,28,06,33,10.30
2015,03,28,06,34,10.30
2015,03,28,06,35,10.30
2015,03,28,06,36,10.30
2015,03,28,06,37,10.30
2015,03,28,06,38,10.30
2015,03,28,06,39,10.30
2015,03,28,06,40,10.30
2015,03,28,06,41,10.40
2015,03,28,06,42,10.40
2015,03,28,06,43,10.40
2015,03,28,06,44,10.40
2015,03,28,06,45,10.40
2015,03,28,06,46,10.40
2015,03,28,06,47,10.30
2015,03,28,06,48,10.30
2015,03,28,06,49,10.30
2015,03,28,06,50,10.30
2015,03,28,06,51,10.20
2015,03,28,06,52,10.20
2015,03,28,06,53,10.20
2015,03,28,06,54,10.20
2015,03,28,06,55,10.10
2015,03,28,06,56,10.10
2015,03,28,06,57,10.10
2015,03,28,06,58,10.10
2015,03,28,06,59,10.00
2015,03,28,07,00,10.10
2015,03,28,07,01,10.10
2015,03,28,07,02,10.10
2015,03,28,07,03,10.10
2015,03,28,07,04,10.10
2015,03,28,07,05,10.10
2015,03,28,07,06,10.10
2015,03,28,07,07,10.10
2015,03,28,07,08,10.10
2015,03,28,07,09,10.10
2015,03,28,07,10,10.10
2015,03,28,07,11,10.10
2015,03,28,07,12,10.10
2015,03,28,07,13,10.10
2015,03,28,07,14,10.20
2015,03,28,07,15,10.20
2015,03,28,07,16,10.20
2015,03,28,07,17,10.20
2015,03,28,07,18,10.20
2015,03,28,07,19,10.20
2015,03,28,07,20,10.20
2015,03,28,07,21,10.20
2015,03,28,07,22,10.20
2015,03,28,07,23,10.20
2015,03,28,07,24,10.20
2015,03,28,07,25,10.20
2015,03,28,07,26,10.20
2015,03,28,07,27,10.20
2015,03,28,07,28,10.20
2015,03,28,07,29,10.20
2015,03,28,07,30,10.10
2015,03,28,07,31,10.10
2015,03,28,07,32,10.10
2015,03,28,07,33,10.20
2015,03,28,07,34,10.20
2015,03,28,07,35,10.20
2015,03,28,07,36,10.30
2015,03,28,07,37,10.30
2015,03,28,07,38,10.30
2015,03,28,07,39,10.30
2015,03,28,07,40,10.40
2015,03,28,07,41,10.40
2015,03,28,07,42,10.40
2015,03,28,07,43,10.40
2015,03,28,07,44,10.40
2015,03,28,07,45,10.40
2015,03,28,07,46,10.40
2015,03,28,07,47,10.40
2015,03,28,07,48,10.40
2015,03,28,07,49,10.30
2015,03,28,07,50,10.30
2015,03,28,07,51,10.30
2015,03,28,07,52,10.30
2015,03,28,07,53,10.30
2015,03,28,07,54,10.30
2015,03,28,07,55,10.40
2015,03,28,07,56,10.40
2015,03,28,07,57,10.40
2015,03,28,07,58,10.40
2015,03,28,07,59,10.40
2015,03,28,08,00,10.40
2015,03,28,08,01,10.40
2015,03,28,08,02,10.40
2015,03,28,08,03,10.40
2015,03,28,08,04,10.40
2015,03,28,08,05,10.40
2015,03,28,08,06,10.40
2015,03,28,08,07,10.40
2015,03,28,08,08,10.40
2015,03,28,08,09,10.40
2015,03,28,08,10,10.40
2015,03,28,08,11,10.40
2015,03,28,08,12,10.40
2015,03,28,08,13,10.40
2015,03,28,08,14,10.40
2015,03,28,08,15,10.40
2015,03,28,08,16,10.40
2015,03,28,08,17,10.40
2015,03,28,08,18,10.40
2015,03,28,08,19,10.40
2015,03,28,08,20,10.40
2015,03,28,08,21,10.50
2015,03,28,08,22,10.50
2015,03,28,08,23,10.50
2015,03,28,08,24,10.50
2015,03,28,08,25,10.60
2015,03,28,08,26,10.60
2015,03,28,08,27,10.60
2015,03,28,08,28,10.60
2015,03,28,08,29,10.60
2015,03,28,08,30,10.60
2015,03,28,08,31,10.60
2015,03,28,08,32,10.70
2015,03,28,08,33,10.70
2015,03,28,08,34,10.70
2015,03,28,08,35,10.70
2015,03,28,08,36,10.70
2015,03,28,08,37,10.70
2015,03,28,08,38,10.70
2015,03,28,08,39,10.70
2015,03,28,08,40,10.70
2015,03,28,08,41,10.70
2015,03,28,08,42,10.70
2015,03,28,08,43,10.80
2015,03,28,08,44,10.80
2015,03,28,08,45,10.80
2015,03,28,08,46,10.90
2015,03,28,08,47,10.90
2015,03,28,08,48,10.90
2015,03,28,08,49,10.90
2015,03,28,08,50,11.00
2015,03,28,08,51,11.00
2015,03,28,08,52,11.10
2015,03,28,08,53,11.10
2015,03,28,08,54,11.10
2015,03,28,08,55,11.10
2015,03,28,08,56,11.10
2015,03,28,08,57,11.10
2015,03,28,08,58,11.20
2015,03,28,08,59,11.20
2015,03,28,09,00,11.20
2015,03,28,09,01,11.20
2015,03,28,09,02,11.20
2015,03,28,09,03,11.20
2015,03,28,09,04,11.20
2015,03,28,09,05,11.20
2015,03,28,09,06,11.20
2015,03,28,09,07,11.20
2015,03,28,09,08,11.20
2015,03,28,09,09,11.20
2015,03,28,09,10,11.20
2015,03,28,09,11,11.20
2015,03,28,09,12,11.20
2015,03,28,09,13,11.20
2015,03,28,09,14,11.20
2015,03,28,09,15,11.20
2015,03,28,09,16,11.20
2015,03,28,09,17,11.20
2015,03,28,09,18,11.20
2015,03,28,09,19,11.20
2015,03,28,09,20,11.20
2015,03,28,09,21,11.20
2015,03,28,09,22,11.20
2015,03,28,09,23,11.20
2015,03,28,09,24,11.20
2015,03,28,09,25,11.20
2015,03,28,09,26,11.20
2015,03,28,09,27,11.20
2015,03,28,09,28,11.20
2015,03,28,09,29,11.20
2015,03,28,09,30,11.20
2015,03,28,09,31,11.20
2015,03,28,09,32,11.20
2015,03,28,09,33,11.20
2015,03,28,09,34,11.20
2015,03,28,09,35,11.30
2015,03,28,09,36,11.30
2015,03,28,09,37,11.30
2015,03,28,09,38,11.40
2015,03,28,09,39,11.50
2015,03,28,09,40,11.50
2015,03,28,09,41,11.60
2015,03,28,09,42,11.60
2015,03,28,09,43,11.70
2015,03,28,09,44,11.70
2015,03,28,09,45,11.70
2015,03,28,09,46,11.70
2015,03,28,09,47,11.70
2015,03,28,09,48,11.70
2015,03,28,09,49,11.80
2015,03,28,09,50,11.80
2015,03,28,09,51,11.80
2015,03,28,09,52,11.80
2015,03,28,09,53,11.90
2015,03,28,09,54,11.90
2015,03,28,09,55,12.00
2015,03,28,09,56,12.00
2015,03,28,09,57,12.00
2015,03,28,09,58,12.00
2015,03,28,09,59,12.10
2015,03,28,10,00,12.00
2015,03,28,10,01,12.00
2015,03,28,10,02,12.00
2015,03,28,10,03,12.10
2015,03,28,10,04,12.10
2015,03,28,10,05,12.10
2015,03,28,10,06,12.10
2015,03,28,10,07,12.10
2015,03,28,10,08,12.10
2015,03,28,10,09,12.10
2015,03,28,10,10,12.10
2015,03,28,10,11,12.10
2015,03,28,10,12,12.10
2015,03,28,10,13,12.10
2015,03,28,10,14,12.10
2015,03,28,10,15,12.10
2015,03,28,10,16,12.10
2015,03,28,10,17,12.10
2015,03,28,10,18,12.00
2015,03,28,10,19,12.00
2015,03,28,10,20,12.00
2015,03,28,10,21,12.00
2015,03,28,10,22,12.00
2015,03,28,10,23,12.00
2015,03,28,10,24,12.10
2015,03,28,10,25,12.00
2015,03,28,10,26,12.00
2015,03,28,10,27,12.00
2015,03,28,10,28,11.90
2015,03,28,10,29,11.90
2015,03,28,10,30,11.90
2015,03,28,10,31,11.90
2015,03,28,10,32,11.90
2015,03,28,10,33,11.90
2015,03,28,10,34,11.90
2015,03,28,10,35,11.90
2015,03,28,10,36,11.90
2015,03,28,10,37,11.90
2015,03,28,10,38,11.90
2015,03,28,10,39,12.00
2015,03,28,10,40,12.00
2015,03,28,10,41,12.00
2015,03,28,10,42,12.00
2015,03,28,10,43,12.00
2015,03,28,10,44,12.00
2015,03,28,10,45,12.10
2015,03,28,10,46,12.10
2015,03,28,10,47,12.10
2015,03,28,10,48,12.10
2015,03,28,10,49,12.10
2015,03,28,10,50,12.10
2015,03,28,10,51,12.10
2015,03,28,10,52,12.10
2015,03,28,10,53,12.10
2015,03,28,10,54,12.10
2015,03,28,10,55,12.20
2015,03,28,10,56,12.20
2015,03,28,10,57,12.20
2015,03,28,10,58,12.30
2015,03,28,10,59,12.40
2015,03,28,11,00,12.40
2015,03,28,11,01,12.50
2015,03,28,11,02,12.50
2015,03,28,11,03,12.50
2015,03,28,11,04,12.50
2015,03,28,11,05,12.50
2015,03,28,11,06,12.40
2015,03,28,11,07,12.40
2015,03,28,11,08,12.50
2015,03,28,11,09,12.50
2015,03,28,11,10,12.50
2015,03,28,11,11,12.50
2015,03,28,11,12,12.40
2015,03,28,11,13,12.40
2015,03,28,11,14,12.30
2015,03,28,11,15,12.30
2015,03,28,11,16,12.30
2015,03,28,11,17,12.20
2015,03,28,11,18,12.20
2015,03,28,11,19,12.20
2015,03,28,11,20,12.20
2015,03,28,11,21,12.20
2015,03,28,11,22,12.20
2015,03,28,11,23,12.10
2015,03,28,11,24,12.10
2015,03,28,11,25,12.10
2015,03,28,11,26,12.10
2015,03,28,11,27,12.10
2015,03,28,11,28,12.10
2015,03,28,11,29,12.00
2015,03,28,11,30,12.00
2015,03,28,11,31,11.90
2015,03,28,11,32,11.80
2015,03,28,11,33,11.70
2015,03,28,11,34,11.70
2015,03,28,11,35,11.70
2015,03,28,11,36,11.70
2015,03,28,11,37,11.60
2015,03,28,11,38,11.60
2015,03,28,11,39,11.60
2015,03,28,11,40,11.60
2015,03,28,11,41,11.60
2015,03,28,11,42,11.60
2015,03,28,11,43,11.60
2015,03,28,11,44,11.60
2015,03,28,11,45,11.60
2015,03,28,11,46,11.60
2015,03,28,11,47,11.60
2015,03,28,11,48,11.60
2015,03,28,11,49,11.60
2015,03,28,11,50,11.60
2015,03,28,11,51,11.60
2015,03,28,11,52,11.50
2015,03,28,11,53,11.50
2015,03,28,11,54,11.50
2015,03,28,11,55,11.50
2015,03,28,11,56,11.50
2015,03,28,11,57,11.40
2015,03,28,11,58,11.40
2015,03,28,11,59,11.40
2015,03,28,12,00,11.40
2015,03,28,12,01,11.40
2015,03,28,12,02,11.50
2015,03,28,12,03,11.50
2015,03,28,12,04,11.50
2015,03,28,12,05,11.50
2015,03,28,12,06,11.40
2015,03,28,12,07,11.40
2015,03,28,12,08,11.40
2015,03,28,12,09,11.40
2015,03,28,12,10,11.40
2015,03,28,12,11,11.30
2015,03,28,12,12,11.30
2015,03,28,12,13,11.30
2015,03,28,12,14,11.30
2015,03,28,12,15,11.30
2015,03,28,12,16,11.30
2015,03,28,12,17,11.30
2015,03,28,12,18,11.30
2015,03,28,12,19,11.40
2015,03,28,12,20,11.40
2015,03,28,12,21,11.30
2015,03,28,12,22,11.30
2015,03,28,12,23,11.30
2015,03,28,12,24,11.30
2015,03,28,12,25,11.30
2015,03,28,12,26,11.30
2015,03,28,12,27,11.30
2015,03,28,12,28,11.30
2015,03,28,12,29,11.30
2015,03,28,12,30,11.30
2015,03,28,12,31,11.30
2015,03,28,12,32,11.30
2015,03,28,12,33,11.30
2015,03,28,12,34,11.40
2015,03,28,12,35,11.40
2015,03,28,12,36,11.40
2015,03,28,12,37,11.40
2015,03,28,12,38,11.40
2015,03,28,12,39,11.40
2015,03,28,12,40,11.40
2015,03,28,12,41,11.40
2015,03,28,12,42,11.40
2015,03,28,12,43,11.50
2015,03,28,12,44,11.50
2015,03,28,12,45,11.60
2015,03,28,12,46,11.60
2015,03,28,12,47,11.70
2015,03,28,12,48,11.70
2015,03,28,12,49,11.70
2015,03,28,12,50,11.70
2015,03,28,12,51,11.70
2015,03,28,12,52,11.80
2015,03,28,12,53,11.80
2015,03,28,12,54,11.90
2015,03,28,12,55,11.90
2015,03,28,12,56,11.90
2015,03,28,12,57,12.00
2015,03,28,12,58,12.00
2015,03,28,12,59,12.00
2015,03,28,13,00,12.10
2015,03,28,13,01,12.10
2015,03,28,13,02,12.10
2015,03,28,13,03,12.10
2015,03,28,13,04,12.20
2015,03,28,13,05,12.20
2015,03,28,13,06,12.20
2015,03,28,13,07,12.30
2015,03,28,13,08,12.30
2015,03,28,13,09,12.30
2015,03,28,13,10,12.30
2015,03,28,13,11,12.30
2015,03,28,13,12,12.40
2015,03,28,13,13,12.30
2015,03,28,13,14,12.30
2015,03,28,13,15,12.40
2015,03,28,13,16,12.30
2015,03,28,13,17,12.30
2015,03,28,13,18,12.30
2015,03,28,13,19,12.30
2015,03,28,13,20,12.30
2015,03,28,13,21,12.30
2015,03,28,13,22,12.40
2015,03,28,13,23,12.40
2015,03,28,13,24,12.40
2015,03,28,13,25,12.40
2015,03,28,13,26,12.40
2015,03,28,13,27,12.40
2015,03,28,13,28,12.50
2015,03,28,13,29,12.50
2015,03,28,13,30,12.50
2015,03,28,13,31,12.50
2015,03,28,13,32,12.50
2015,03,28,13,33,12.60
2015,03,28,13,34,12.60
2015,03,28,13,35,12.60
2015,03,28,13,36,12.60
2015,03,28,13,37,12.60
2015,03,28,13,38,12.60
2015,03,28,13,39,12.60
2015,03,28,13,40,12.60
2015,03,28,13,41,12.60
2015,03,28,13,42,12.60
2015,03,28,13,43,12.60
2015,03,28,13,44,12.60
2015,03,28,13,45,12.60
2015,03,28,13,46,12.60
2015,03,28,13,47,12.60
2015,03,28,13,48,12.60
2015,03,28,13,49,12.60
2015,03,28,13,50,12.60
2015,03,28,13,51,12.60
2015,03,28,13,52,12.60
2015,03,28,13,53,12.60
2015,03,28,13,54,12.70
2015,03,28,13,55,12.70
2015,03,28,13,56,12.70
2015,03,28,13,57,12.70
2015,03,28,13,58,12.80
2015,03,28,13,59,12.80
2015,03,28,14,00,12.90
2015,03,28,14,01,12.90
2015,03,28,14,02,13.00
2015,03,28,14,03,13.00
2015,03,28,14,04,13.10
2015,03,28,14,05,13.10
2015,03,28,14,06,13.10
2015,03,28,14,07,13.10
2015,03,28,14,08,13.10
2015,03,28,14,09,13.10
2015,03,28,14,10,13.10
2015,03,28,14,11,13.10
2015,03,28,14,12,13.10
2015,03,28,14,13,13.20
2015,03,28,14,14,13.20
2015,03,28,14,15,13.20
2015,03,28,14,16,13.20
2015,03,28,14,17,13.20
2015,03,28,14,18,13.20
2015,03,28,14,19,13.20
2015,03,28,14,20,13.30
2015,03,28,14,21,13.30
2015,03,28,14,22,13.30
2015,03,28,14,23,13.30
2015,03,28,14,24,13.30
2015,03,28,14,25,13.30
2015,03,28,14,26,13.30
2015,03,28,14,27,13.30
2015,03,28,14,28,13.30
2015,03,28,14,29,13.30
2015,03,28,14,30,13.30
2015,03,28,14,31,13.30
2015,03,28,14,32,13.30
2015,03,28,14,33,13.30
2015,03,28,14,34,13.30
2015,03,28,14,35,13.30
2015,03,28,14,36,13.30
2015,03,28,14,37,13.30
2015,03,28,14,38,13.30
2015,03,28,14,39,13.20
2015,03,28,14,40,13.20
2015,03,28,14,41,13.20
2015,03,28,14,42,13.10
2015,03,28,14,43,13.10
2015,03,28,14,44,13.10
2015,03,28,14,45,13.10
2015,03,28,14,46,13.10
2015,03,28,14,47,13.10
2015,03,28,14,48,13.10
2015,03,28,14,49,13.10
2015,03,28,14,50,13.10
2015,03,28,14,51,13.10
2015,03,28,14,52,13.10
2015,03,28,14,53,13.10
2015,03,28,14,54,13.10
2015,03,28,14,55,13.20
2015,03,28,14,56,13.20
2015,03,28,14,57,13.20
2015,03,28,14,58,13.20
2015,03,28,14,59,13.20
2015,03,28,15,00,13.20
2015,03,28,15,01,13.20
2015,03,28,15,02,13.10
2015,03,28,15,03,13.10
2015,03,28,15,04,13.10
2015,03,28,15,05,13.00
2015,03,28,15,06,13.00
2015,03,28,15,07,12.90
2015,03,28,15,08,12.90
2015,03,28,15,09,12.90
2015,03,28,15,10,12.90
2015,03,28,15,11,12.90
2015,03,28,15,12,12.80
2015,03,28,15,13,12.80
2015,03,28,15,14,12.80
2015,03,28,15,15,12.80
2015,03,28,15,16,12.90
2015,03,28,15,17,12.90
2015,03,28,15,18,12.90
2015,03,28,15,19,12.90
2015,03,28,15,20,12.90
2015,03,28,15,21,12.90
2015,03,28,15,22,12.90
2015,03,28,15,23,12.90
2015,03,28,15,24,12.90
2015,03,28,15,25,12.90
2015,03,28,15,26,12.90
2015,03,28,15,27,13.00
2015,03,28,15,28,13.00
2015,03,28,15,29,13.00
2015,03,28,15,30,13.00
2015,03,28,15,31,13.00
2015,03,28,15,32,13.10
2015,03,28,15,33,13.10
2015,03,28,15,34,13.10
2015,03,28,15,35,13.10
2015,03,28,15,36,13.10
2015,03,28,15,37,13.10
2015,03,28,15,38,13.10
2015,03,28,15,39,13.10
2015,03,28,15,40,13.10
2015,03,28,15,41,13.10
2015,03,28,15,42,13.10
2015,03,28,15,43,13.10
2015,03,28,15,44,13.10
2015,03,28,15,45,13.20
2015,03,28,15,46,13.20
2015,03,28,15,47,13.20
2015,03,28,15,48,13.20
2015,03,28,15,49,13.10
2015,03,28,15,50,13.10
2015,03,28,15,51,13.10
2015,03,28,15,52,13.00
2015,03,28,15,53,13.00
2015,03,28,15,54,12.90
2015,03,28,15,55,12.90
2015,03,28,15,56,12.80
2015,03,28,15,57,12.80
2015,03,28,15,58,12.80
2015,03,28,15,59,12.80
2015,03,28,16,00,12.70
2015,03,28,16,01,12.70
2015,03,28,16,02,12.70
2015,03,28,16,03,12.70
2015,03,28,16,04,12.70
2015,03,28,16,05,12.70
2015,03,28,16,06,12.70
2015,03,28,16,07,12.70
2015,03,28,16,08,12.70
2015,03,28,16,09,12.60
2015,03,28,16,10,12.60
2015,03,28,16,11,12.60
2015,03,28,16,12,12.60
2015,03,28,16,13,12.60
2015,03,28,16,14,12.60
2015,03,28,16,15,12.60
2015,03,28,16,16,12.50
2015,03,28,16,17,12.50
2015,03,28,16,18,12.50
2015,03,28,16,19,12.50
2015,03,28,16,20,12.50
2015,03,28,16,21,12.50
2015,03,28,16,22,12.60
2015,03,28,16,23,12.50
2015,03,28,16,24,12.50
2015,03,28,16,25,12.50
2015,03,28,16,26,12.50
2015,03,28,16,27,12.50
2015,03,28,16,28,12.60
2015,03,28,16,29,12.60
2015,03,28,16,30,12.60
2015,03,28,16,31,12.60
2015,03,28,16,32,12.60
2015,03,28,16,33,12.50
2015,03,28,16,34,12.50
2015,03,28,16,35,12.50
2015,03,28,16,36,12.50
2015,03,28,16,37,12.40
2015,03,28,16,38,12.50
2015,03,28,16,39,12.50
2015,03,28,16,40,12.50
2015,03,28,16,41,12.60
2015,03,28,16,42,12.60
2015,03,28,16,43,12.60
2015,03,28,16,44,12.60
2015,03,28,16,45,12.60
2015,03,28,16,46,12.60
2015,03,28,16,47,12.60
2015,03,28,16,48,12.60
2015,03,28,16,49,12.60
2015,03,28,16,50,12.60
2015,03,28,16,51,12.60
2015,03,28,16,52,12.70
2015,03,28,16,53,12.70
2015,03,28,16,54,12.60
2015,03,28,16,55,12.60
2015,03,28,16,56,12.60
2015,03,28,16,57,12.60
2015,03,28,16,58,12.60
2015,03,28,16,59,12.60
2015,03,28,17,00,12.70
2015,03,28,17,01,12.70
2015,03,28,17,02,12.70
2015,03,28,17,03,12.70
2015,03,28,17,04,12.70
2015,03,28,17,05,12.60
2015,03,28,17,06,12.60
2015,03,28,17,07,12.60
2015,03,28,17,08,12.60
2015,03,28,17,09,12.60
2015,03,28,17,10,12.60
2015,03,28,17,11,12.60
2015,03,28,17,12,12.60
2015,03,28,17,13,12.60
2015,03,28,17,14,12.70
2015,03,28,17,15,12.70
2015,03,28,17,16,12.70
2015,03,28,17,17,12.70
2015,03,28,17,18,12.60
2015,03,28,17,19,12.60
2015,03,28,17,20,12.60
2015,03,28,17,21,12.60
2015,03,28,17,22,12.60
2015,03,28,17,23,12.50
2015,03,28,17,24,12.50
2015,03,28,17,25,12.60
2015,03,28,17,26,12.60
2015,03,28,17,27,12.60